Погода в Банхе

Египет     30°27′20″N   31°10′40″E
темп.,
°C
ветер,
м/с
пор.,
м/с
влажн.,
%
обл.,
%
осадки,
мм/ч
давл.,
гПа
погр.,
м
7 марта, вс
вс723:00+10св34930 0.0 102279
02:00+9ссв23940 0.0 102041
05:00+9с23930 0.0 101934
08:00+13ссв34740 0.0 1020210
11:00+22св44300 0.0 10201101
14:00+26с44160 0.0 10171828
17:00+24ссв77230 0.0 10171213
20:00+13св47660 0.0 1018155
8 марта, пн
пн823:00+10св23890 0.0 101836
02:00+10ссв22900 0.0 101723
05:00+9ссв22900 0.0 101722
08:00+14св22690 0.0 1018184
11:00+22св33310 0.0 10181048
14:00+26ссв34180 0.0 10162089
17:00+25с44200 0.0 10151954
20:00+15всв510640 0.0 1016199
9 марта, вт
вт923:00+13всв34680 0.0 101667
02:00+12всв34690 0.0 101552
05:00+12всв34620 0.0 101456
08:00+18в463720 0.0 1015224
11:00+28вюв561431 0.0 1015911
14:00+31юв451049 0.0 10121490
17:00+30ююв231162 0.0 1011111
20:00+21вюв452055 0.0 101166
10 марта, ср
ср1023:00+18в34300 0.0 101151
02:00+18ю23210 0.0 100931
05:00+20ююз511170 0.0 1009209
08:00+25юз6101217 0.0 1010427
11:00+34зюз91260 0.0 10101667
14:00+35з91170 0.0 10081849
17:00+29зсз89200 0.0 1009962
20:00+18сз5125233 0.0 1011366
11 марта, чт
чт1123:00+14зсз4139165 0.0 1013408
02:00+14зсз4119767 0.0 1013408
05:00+13зсз411961 0.0 1013302
08:00+17сз587215 0.0 1015827
11:00+24сз57360 0.0 10161546
14:00+25сз910290 0.0 10152123
17:00+20сз810450 0.0 10151444
20:00+14сз512755 0.0 1018799